Hourly Weather Barrancas

Today, 19 April, Monday

Time Temperature Precipitation Wind Pressure Humidity
00:00 +26°C° 0 mm 1 mps 745 mmHg 87%
01:00 +26°C° 0 mm 1 mps 745 mmHg 89%
02:00 +26°C° 0 mm 1 mps 745 mmHg 89%
03:00 +25°C° 0 mm 1 mps 745 mmHg 89%
04:00 +25°C° 0 mm 1 mps 745 mmHg 89%
05:00 +26°C° 0 mm 1 mps 745 mmHg 87%
06:00 +26°C° 0 mm 1 mps 746 mmHg 85%
07:00 +27°C° 0 mm 1 mps 746 mmHg 84%
08:00 +29°C° 0 mm 1 mps 746 mmHg 76%
09:00 +30°C° 0 mm 1 mps 747 mmHg 69%
10:00 +32°C° 0 mm 2 mps 747 mmHg 61%
11:00 +34°C° 0 mm 2 mps 746 mmHg 56%
12:00 +36°C° 0 mm 2 mps 745 mmHg 51%
13:00 +37°C° 0 mm 2 mps 744 mmHg 46%
14:00 +36°C° 0 mm 3 mps 744 mmHg 48%
15:00 +36°C° 0 mm 3 mps 743 mmHg 49%
16:00 +35°C° 0 mm 3 mps 743 mmHg 51%
17:00 +33°C° 0 mm 3 mps 744 mmHg 60%
18:00 +30°C° 0 mm 2 mps 744 mmHg 70%
19:00 +28°C° 0 mm 2 mps 745 mmHg 79%
20:00 +27°C° 0 mm 2 mps 745 mmHg 82%
21:00 +27°C° 0 mm 2 mps 746 mmHg 84%
22:00 +26°C° 0 mm 2 mps 746 mmHg 86%
23:00 +26°C° 0 mm 2 mps 746 mmHg 87%

Tomorrow, 20 April, Tuesday

Time Temperature Precipitation Wind Pressure Humidity
00:00 +26°C° 0 mm 1 mps 745 mmHg 88%
01:00 +25°C° 0 mm 1 mps 745 mmHg 89%
02:00 +25°C° 0 mm 1 mps 745 mmHg 89%
03:00 +25°C° 0 mm 1 mps 745 mmHg 90%
04:00 +25°C° 0 mm 1 mps 745 mmHg 90%
05:00 +25°C° 0 mm 1 mps 745 mmHg 86%
06:00 +26°C° 0 mm 1 mps 746 mmHg 83%
07:00 +27°C° 0 mm 1 mps 746 mmHg 80%
08:00 +29°C° 0 mm 2 mps 746 mmHg 71%
09:00 +31°C° 0 mm 2 mps 746 mmHg 62%
10:00 +34°C° 0 mm 2 mps 746 mmHg 53%
11:00 +35°C° 0 mm 2 mps 746 mmHg 49%
12:00 +36°C° 0 mm 3 mps 745 mmHg 44%
13:00 +38°C° 0 mm 3 mps 744 mmHg 40%
14:00 +37°C° 0 mm 3 mps 744 mmHg 43%
15:00 +36°C° 0 mm 3 mps 743 mmHg 46%
16:00 +35°C° 0 mm 3 mps 743 mmHg 48%
17:00 +33°C° 0.1 mm 3 mps 744 mmHg 57%
18:00 +30°C° 0.1 mm 2 mps 744 mmHg 66%
19:00 +28°C° 0.1 mm 2 mps 745 mmHg 74%
20:00 +27°C° 0.1 mm 2 mps 746 mmHg 77%
21:00 +27°C° 0.1 mm 1 mps 746 mmHg 79%
22:00 +26°C° 0.1 mm 1 mps 747 mmHg 82%
23:00 +25°C° 0 mm 1 mps 746 mmHg 83%

Day after tomorrow, 21 April, Wednesday

Time Temperature Precipitation Wind Pressure Humidity
00:00 +25°C° 0 mm 1 mps 746 mmHg 85%
01:00 +25°C° 0 mm 1 mps 746 mmHg 86%
02:00 +25°C° 0 mm 1 mps 745 mmHg 87%
03:00 +24°C° 0 mm 1 mps 745 mmHg 87%
04:00 +24°C° 0 mm 1 mps 745 mmHg 87%
05:00 +25°C° 0 mm 1 mps 746 mmHg 84%
06:00 +26°C° 0 mm 1 mps 746 mmHg 81%
07:00 +26°C° 0 mm 1 mps 747 mmHg 78%
08:00 +28°C° 0 mm 2 mps 747 mmHg 70%
09:00 +30°C° 0 mm 2 mps 747 mmHg 62%
10:00 +34°C° 0 mm 2 mps 747 mmHg 54%
11:00 +35°C° 0 mm 2 mps 746 mmHg 49%
12:00 +36°C° 0 mm 3 mps 745 mmHg 45%
13:00 +37°C° 0 mm 3 mps 744 mmHg 40%
14:00 +37°C° 0 mm 3 mps 744 mmHg 42%
15:00 +36°C° 0 mm 3 mps 743 mmHg 45%
16:00 +35°C° 0 mm 3 mps 743 mmHg 47%
17:00 +32°C° 0 mm 2 mps 744 mmHg 55%
18:00 +30°C° 0 mm 2 mps 744 mmHg 64%
19:00 +28°C° 0 mm 1 mps 745 mmHg 72%
20:00 +27°C° 0 mm 1 mps 746 mmHg 76%
21:00 +27°C° 0 mm 1 mps 746 mmHg 80%
22:00 +26°C° 0 mm 1 mps 747 mmHg 84%
23:00 +26°C° 0 mm 1 mps 746 mmHg 85%

22 April, Thursday

Time Temperature Precipitation Wind Pressure Humidity
00:00 +25°C° 0 mm 1 mps 746 mmHg 87%
01:00 +25°C° 0 mm 1 mps 745 mmHg 89%
02:00 +25°C° 0 mm 1 mps 745 mmHg 88%
03:00 +25°C° 0 mm 1 mps 745 mmHg 87%
04:00 +25°C° 0 mm 1 mps 745 mmHg 86%
05:00 +25°C° 0 mm 1 mps 746 mmHg 83%
06:00 +26°C° 0 mm 1 mps 746 mmHg 80%
07:00 +27°C° 0 mm 1 mps 747 mmHg 77%
08:00 +28°C° 0 mm 2 mps 747 mmHg 69%
09:00 +30°C° 0 mm 2 mps 747 mmHg 62%
10:00 +32°C° 0 mm 2 mps 747 mmHg 54%
11:00 +35°C° 0 mm 2 mps 746 mmHg 49%
12:00 +36°C° 0 mm 3 mps 745 mmHg 45%
13:00 +37°C° 0 mm 3 mps 744 mmHg 40%
14:00 +37°C° 0 mm 3 mps 743 mmHg 41%
15:00 +37°C° 0 mm 3 mps 743 mmHg 41%
16:00 +36°C° 0 mm 3 mps 742 mmHg 42%
17:00 +34°C° 0 mm 2 mps 743 mmHg 52%
18:00 +31°C° 0 mm 2 mps 744 mmHg 62%
19:00 +29°C° 0 mm 1 mps 744 mmHg 71%
20:00 +28°C° 0 mm 1 mps 745 mmHg 76%
21:00 +27°C° 0 mm 1 mps 745 mmHg 80%
22:00 +26°C° 0 mm 1 mps 746 mmHg 84%
23:00 +26°C° 0 mm 1 mps 746 mmHg 86%

23 April, Friday

Time Temperature Precipitation Wind Pressure Humidity
00:00 +26°C° 0 mm 1 mps 746 mmHg 88%
01:00 +25°C° 0 mm 1 mps 745 mmHg 89%
02:00 +25°C° 0 mm 1 mps 745 mmHg 89%
03:00 +25°C° 0 mm 1 mps 745 mmHg 89%
04:00 +25°C° 0 mm 1 mps 745 mmHg 89%
05:00 +26°C° 0 mm 1 mps 746 mmHg 85%
06:00 +26°C° 0 mm 1 mps 746 mmHg 81%
07:00 +27°C° 0 mm 1 mps 747 mmHg 77%
08:00 +29°C° 0 mm 2 mps 747 mmHg 71%
09:00 +30°C° 0 mm 2 mps 747 mmHg 65%
10:00 +32°C° 0 mm 2 mps 747 mmHg 59%
11:00 +34°C° 0 mm 3 mps 746 mmHg 53%
12:00 +36°C° 0 mm 3 mps 745 mmHg 48%
13:00 +37°C° 0 mm 3 mps 744 mmHg 42%
14:00 +36°C° 0 mm 3 mps 744 mmHg 44%
15:00 +35°C° 0 mm 3 mps 743 mmHg 46%
16:00 +35°C° 0 mm 3 mps 743 mmHg 49%
17:00 +32°C° 0 mm 2 mps 743 mmHg 56%
18:00 +30°C° 0 mm 2 mps 744 mmHg 64%
19:00 +28°C° 0 mm 2 mps 744 mmHg 72%
20:00 +28°C° 0 mm 1 mps 745 mmHg 76%
21:00 +27°C° 0 mm 1 mps 745 mmHg 81%
22:00 +26°C° 0 mm 1 mps 746 mmHg 85%
23:00 +26°C° 0 mm 1 mps 745 mmHg 86%

24 April, Saturday

Time Temperature Precipitation Wind Pressure Humidity
00:00 +26°C° 0 mm 1 mps 745 mmHg 87%
01:00 +26°C° 0 mm 1 mps 745 mmHg 88%
02:00 +26°C° 0 mm 1 mps 745 mmHg 88%
03:00 +26°C° 0 mm 1 mps 744 mmHg 87%
04:00 +26°C° 0 mm 1 mps 744 mmHg 86%
05:00 +26°C° 0 mm 1 mps 745 mmHg 85%
06:00 +27°C° 0 mm 1 mps 745 mmHg 83%
07:00 +27°C° 0 mm 2 mps 745 mmHg 82%
08:00 +29°C° 0 mm 2 mps 745 mmHg 73%
09:00 +31°C° 0 mm 2 mps 745 mmHg 65%
10:00 +34°C° 0 mm 2 mps 745 mmHg 56%
11:00 +35°C° 0 mm 3 mps 745 mmHg 51%
12:00 +37°C° 0 mm 3 mps 744 mmHg 45%
13:00 +38°C° 0 mm 3 mps 743 mmHg 40%
14:00 +37°C° 0 mm 3 mps 743 mmHg 43%
15:00 +36°C° 0 mm 4 mps 742 mmHg 46%
16:00 +35°C° 0 mm 4 mps 742 mmHg 49%
17:00 +33°C° 0 mm 3 mps 742 mmHg 58%
18:00 +30°C° 0 mm 3 mps 743 mmHg 67%
19:00 +29°C° 0 mm 2 mps 744 mmHg 75%
20:00 +28°C° 0 mm 2 mps 744 mmHg 79%
21:00 +27°C° 0 mm 2 mps 745 mmHg 83%
22:00 +26°C° 0 mm 1 mps 745 mmHg 87%
23:00 +26°C° 0 mm 1 mps 745 mmHg 88%
Show more